Location: Bettgenhausen
(50.6463°N, 7.5681°E)
Time: 04:28:51
(UTC+00:00)

Meteor 1-11 Rocket - Pass Details

Date: 27 February 2020
Orbit: 831 x 915 km, 81.2° (Epoch: 30 March)

Event Time Altitude Azimuth Distance (km) Brightness Sun altitude
Rises 19:08:15 0° 171° (S) 3,402 6.7 -20.0°
Reaches altitude 10° 19:10:45 10° 166° (SSE) 2,461 5.9 -20.3°
Maximum altitude 19:16:02 47° 94° (E) 1,099 3.8 -21.2°
Drops below altitude 10° 19:21:19 10° 22° (NNE) 2,453 6.0 -22.0°
Sets 19:23:47 0° 17° (NNE) 3,390 6.8 -22.4°
